Location: Andershausen
(51.8462°N, 9.8595°E)
Time: 07:20:01
(UTC+00:00)

ISS - Pass Details

Date: 18 November 2025
Orbit: 416 x 420 km, 51.6° (Epoch: 11 December)

Event Time Altitude Azimuth Distance (km) Brightness Sun altitude
Rises 17:58:21 0° 257° (WSW) 2,367 1.4 -23.2°
Reaches altitude 10° 18:00:27 10° 256° (WSW) 1,502 0.1 -23.5°
Enters shadow 18:02:45 41° 250° (WSW) 626 -2.5 -23.9°
